Location: Observatoire
(46.1952°N, 5.3391°E)
Time: 21:02:16
(UTC+01:00)

BlueWalker 3 - Visible Passes

Search period start: 30 November 2023 00:00
Search period end: 10 December 2023 00:00
Orbit: 489 x 504 km, 53.2° (Epoch: 29 November)

Date Brightness Start Highest point End Pass type
(mag) Time Alt. Az. Time Alt. Az. Time Alt. Az.
30 Nov 2.7 05:45:43 40° NNE 05:45:48 40° NNE 05:49:26 10° E visible
30 Nov 2.3 07:20:33 10° WNW 07:24:17 51° SW 07:27:59 10° SE visible
01 Dec 3.4 05:24:08 34° NE 05:24:08 34° NE 05:26:50 10° E visible
01 Dec 2.3 06:58:41 15° WNW 07:01:41 52° SW 07:05:23 10° SE visible
02 Dec 4.3 05:02:34 22° ENE 05:02:34 22° ENE 05:04:13 10° E visible
02 Dec 2.2 06:37:08 25° WNW 06:39:04 53° SW 06:42:46 10° SE visible
03 Dec 5.1 04:41:03 13° E 04:41:03 13° E 04:41:35 10° E visible
03 Dec 2.1 06:15:37 43° W 06:16:26 53° SW 06:20:09 10° SE visible
04 Dec 2.3 05:54:09 51° SSW 05:54:09 51° SSW 05:57:31 10° SE visible
05 Dec 3.4 05:32:44 30° SSE 05:32:44 30° SSE 05:34:52 10° SE visible
06 Dec 4.5 05:11:22 16° SE 05:11:22 16° SE 05:12:11 10° SE visible
